Sugar Grove, IL

11:33 PM CDT on September 30, 2016 (GMT -0500)
Aurora Municipal

Weather History for KARR - September, 2014

Change the Weather History Date:

Saturday, September 6, 2014

  Actual Average Record
Temperature  
Mean Temperature 64 °F 67 °F  
Max Temperature 73 °F 79 °F 92 °F (2015)
Min Temperature 54 °F 55 °F 40 °F (2000)
Degree Days  
Heating Degree Days 1 2  
Month to date heating degree days 1 8  
Since 1 July heating degree days 22 32  
Cooling Degree Days 0 4  
Month to date cooling degree days 43 24  
Year to date cooling degree days 673 608  
Growing Degree Days 14 (Base 50)    
Moisture  
Dew Point 53 °F    
Average Humidity 67    
Maximum Humidity 87    
Minimum Humidity 47    
Precipitation  
Precipitation 0.00 in 0.11 in 0.52 in (2001)
Month to date precipitation 0.41 0.56  
Year to date precipitation 23.28 25.76  
Sea Level Pressure  
Sea Level Pressure 30.16 in    
Wind  
Wind Speed 6 mph (NNW)    
Max Wind Speed 15 mph    
Max Gust Speed 19 mph    
Visibility 10 miles    
Events      
T = Trace of Precipitation, MM = Missing Value Source: NWS Daily Summary

Daily Weather History Graph

Daily Weather History Graph

Search for Another Location

Airport or City:

Trip Planner

Search our weather history database for the weather conditions in past years. The results will help you decide how hot, cold, wet, or windy it might be!

Date:

Astronomy

Sep. 06, 2014 Rise Set
Actual Time 6:24 AM CDT 7:18 PM CDT
Civil Twilight 5:56 AM CDT 7:47 PM CDT
Nautical Twilight 5:22 AM CDT 8:20 PM CDT
Astronomical Twilight 4:47 AM CDT 8:55 PM CDT
Moon 5:36 PM CDT (9/6) 3:24 AM CDT (9/6)
Length of Visible Light 13h 50m
Length of Day
12h 53m
Waxing Gibbous, 92% of the Moon is Illuminated
Sep 6
Waxing Gibbous
Sep 8
Full
Sep 15
Last Quarter
Sep 24
New
Oct 1
First Quarter

Hourly Weather History & Observations

Time (CDT) Temp. Dew Point Humidity Pressure Visibility Wind Dir Wind Speed Gust Speed Precip Events Conditions
12:52 AM 62.1 °F 55.9 °F 80% 30.07 in 10.0 mi NNW 9.2 mph - N/A   Overcast
1:52 AM 61.0 °F 55.0 °F 81% 30.08 in 10.0 mi NNW 8.1 mph - N/A   Mostly Cloudy
5:52 AM 57.0 °F 54.0 °F 89% 30.12 in 10.0 mi NNW 6.9 mph - N/A   Clear
6:52 AM 57.0 °F 53.1 °F 87% 30.14 in 9.0 mi NNW 6.9 mph - N/A   Clear
7:52 AM 59.0 °F 55.0 °F 87% 30.16 in 10.0 mi NNW 6.9 mph - N/A   Clear
8:52 AM 61.0 °F 54.0 °F 78% 30.17 in 10.0 mi North 9.2 mph - N/A   Clear
9:52 AM 64.9 °F 52.0 °F 63% 30.19 in 10.0 mi North 11.5 mph - N/A   Clear
10:52 AM 66.9 °F 51.1 °F 57% 30.19 in 10.0 mi NNE 10.4 mph - N/A   Clear
12:52 PM 70.0 °F 52.0 °F 53% 30.19 in 10.0 mi North 6.9 mph - N/A   Partly Cloudy
1:52 PM 71.1 °F 50.0 °F 47% 30.18 in 10.0 mi North 10.4 mph - N/A   Clear
2:52 PM 72.0 °F 50.0 °F 46% 30.17 in 10.0 mi Variable 4.6 mph - N/A   Clear
3:52 PM 72.0 °F 50.0 °F 46% 30.17 in 10.0 mi North 6.9 mph - N/A   Clear
4:52 PM 72.0 °F 50.0 °F 46% 30.16 in 10.0 mi North 8.1 mph - N/A   Clear
5:52 PM 71.1 °F 52.0 °F 51% 30.15 in 10.0 mi NNW 8.1 mph - N/A   Clear
6:52 PM 69.1 °F 55.0 °F 61% 30.16 in 10.0 mi NW 3.5 mph - N/A   Clear
7:52 PM 62.1 °F 55.0 °F 78% 30.17 in 9.0 mi West 4.6 mph - N/A   Clear
8:52 PM 61.0 °F 54.0 °F 78% 30.19 in 10.0 mi Calm Calm - N/A   Clear
9:52 PM 57.9 °F 54.0 °F 87% 30.19 in 7.0 mi Calm Calm - N/A   Clear
10:52 PM 55.0 °F 52.0 °F 89% 30.19 in 9.0 mi WNW 3.5 mph - N/A   Clear
11:52 PM 55.0 °F 52.0 °F 89% 30.19 in 9.0 mi Calm Calm - N/A   Clear